#timestamp,LO_Frequency,Hit,StdDev 
1602595535.6,286047015.8,P
1602595555.4,286047016.6,P
1602595575.2,286047016.9,P
1602595595.1,286047018.3,Y
1602595596.0,286047018.3,P
1602595615.8,286047002.6,P
1602595635.6,286047001.9,N
1602595655.5,286047000.5,N
1602595675.3,286046999.4,N
1602595695.2,286047000.9,N
1602595715.0,286047000.7,N
1602595715.9,286047000.7,N
1602595735.7,286046998.8,N
1602595755.6,286046998.3,N
1602595775.4,286046998.3,N
1602595795.3,286046999.9,N
1602595815.1,286046998.2,N
1602595816.0,286046998.2,N
1602595835.8,286046999.8,N
1602595855.7,286047004.2,N
1602595875.5,286047005.7,N
1602595895.3,286047007.6,N
1602595915.2,286047005.3,N
1602595935.0,286047005.8,N
1602595935.9,286047005.8,N
1602595955.8,286047004.2,N
1602595975.6,286047005.4,N
1602595995.4,286047005.8,N
1602596015.3,286047004.9,N
1602596035.1,286047006.8,N
1602596055.9,286047010.5,N
1602596075.7,286047010.0,N
1602596095.5,286047009.3,N
1602596115.4,286047010.0,N
1602596135.2,286047006.2,N
1602596155.0,286047007.6,N
1602596155.9,286047007.6,N
1602596175.8,286047005.0,N
1602596195.6,286047006.7,N
1602596215.5,286047008.6,N
1602596235.3,286047011.9,Y
1602596255.1,286047007.0,P
1602596275.9,286047003.3,N
1602596295.7,286047003.0,N
1602596315.5,286047004.2,N
1602596335.4,286047004.3,Y
1602596355.2,286046996.9,P
1602596375.1,286046997.0,N
1602596376.0,286046997.0,N
1602596395.8,286046996.7,N
1602596415.6,286046997.2,N
1602596435.5,286046997.8,N
1602596455.3,286046997.9,N
1602596475.1,286046999.6,N
1602596495.9,286046998.6,N
1602596515.7,286047004.0,N
1602596535.6,286047005.2,N
1602596555.4,286047004.1,N
1602596575.2,286047005.4,N
1602596595.1,286047004.8,N
1602596596.0,286047004.8,N
1602596615.8,286047003.7,N
1602596635.7,286047004.3,N
1602596655.5,286047002.4,N
1602596675.3,286047002.6,N
1602596695.2,286047001.7,N
1602596715.9,286047001.7,N
1602596735.7,286047002.3,N
1602596755.6,286047004.0,N
1602596775.4,286047003.1,N
1602596795.3,286047001.3,N
1602596815.1,286047001.6,N
1602596816.0,286047001.6,N
1602596835.8,286047002.2,N
1602596855.7,286047004.1,N
1602596875.5,286047001.7,N
1602596895.3,286047000.8,N
1602596915.2,286046997.7,N
1602596935.0,286046996.9,N
1602596935.9,286046996.9,N
1602596955.8,286047001.6,N
1602596975.6,286047004.1,N
1602596995.4,286047005.4,N
1602597015.3,286047004.6,N
1602597035.1,286047003.0,N
1602597055.8,286047000.9,N
1602597075.7,286046997.0,N
1602597095.5,286046997.1,N
1602597115.4,286047000.4,N
1602597135.2,286047002.3,N
1602597155.0,286047000.8,N
1602597155.9,286047000.8,N
1602597175.8,286047000.0,N
1602597195.6,286047000.7,N
1602597215.4,286047002.5,N
1602597235.3,286047003.6,N
1602597255.1,286047005.5,N
1602597275.9,286047004.6,N
1602597295.7,286047008.6,Y
1602597315.5,286047008.6,P
1602597335.4,286047004.6,N
1602597355.2,286047004.7,N
1602597375.0,286047006.8,N
1602597376.0,286047006.8,N
1602597395.8,286047003.5,N
1602597415.6,286047002.8,N
1602597435.5,286046999.7,N
1602597455.3,286046998.6,N
1602597475.1,286046998.9,N
1602597495.9,286046996.6,N
1602597515.7,286046998.4,N
1602597535.5,286047000.2,N
1602597555.4,286047002.7,N
1602597575.2,286047002.2,N
1602597595.1,286047001.7,N
1602597596.0,286047001.7,N
